Regional Weather Roundup
Issued by NWS Sioux Falls, SD

Home | Current Version | Previous Version | Text Only | Print | Product List | Glossary On
Versions: 1 2 3 4 5 6 7 8 9 10 11 12 13 14 15 16 17 18 19 20 21 22 23 24 25 26 27 28 29 30 31 32 33 34 35 36 37 38 39 40 41 42 43 44 45 46 47 48 49 50
000
ASUS43 KFSD 241610
RWRFSD

WEATHER ROUNDUP FOR SE SOUTH DAKOTA/SW MINNESOTA/NW IOWA
NATIONAL WEATHER SERVICE SIOUX FALLS SD
1100 AM CDT WED MAY 24 2017

NOTE: "FAIR" INDICATES FEW OR NO CLOUDS BELOW 12,000 FEET WITH NO
SIGNIFICANT WEATHER AND OR OBSTRUCTIONS TO VISIBILITY.


SDZ038>040-050-052>070-241700-
SOUTHEAST SOUTH DAKOTA

CITY           SKY/WX    TMP DP  RH WIND       PRES   REMARKS
BROOKINGS      CLOUDY    54  45  71 E5        29.78F
CHAMBERLAIN    FAIR      57  45  62 CALM      29.77F
HURON          PTSUNNY   55  44  66 SE6       29.77F
MADISON        CLOUDY    50  50 100 E6        29.79F
MITCHELL       PTSUNNY   56  45  66 CALM      29.79F
SIOUX FALLS    PTSUNNY   56  48  74 NE5       29.78F
WINNER         FAIR      57  43  59 MISG      29.77F
YANKTON        FAIR      56  47  71 N5        29.78F
$$

MNZ071-072-080-081-089-090-097-098-241700-
SOUTHWEST MINNESOTA

CITY           SKY/WX    TMP DP  RH WIND       PRES   REMARKS
JACKSON        PTSUNNY   52  45  76 N6        29.77F
LUVERNE        FAIR      52  43  71 NE9       29.78F
MARSHALL       FAIR      54  47  77 N6        29.79F
MONTEVIDEO     CLOUDY    57  48  72 E6        29.78F
PIPESTONE      FAIR      54  43  66 E3        29.78F
REDWOOD FALLS  PTSUNNY   57  43  59 VRB7      29.77F
TRACY          PTSUNNY   53  46  78 NE5       29.78F
WINDOM         FAIR      54  46  76 N6        29.78S
WORTHINGTON    CLOUDY    52  45  77 N8        29.78F
$$

IAZ001>003-012>014-020>022-031-032-NEZ013-014-SDZ071-241700-
NORTHWEST IOWA

CITY           SKY/WX    TMP DP  RH WIND       PRES   REMARKS
CHEROKEE       FAIR      56  50  80 N7        29.76F
DENISON        CLOUDY    55  48  76 N12       29.76F
ESTHERVILLE    CLOUDY    52  47  83 N10       29.75F
LE MARS        CLOUDY    54  48  82 N9G15     29.79F
ORANGE CITY    PTSUNNY   54  48  82 N8        29.78F
SHELDON        PTSUNNY   54  46  76 N7G15       N/A
SIOUX CITY     FAIR      59  50  72 N10       29.78F
SPENCER        FAIR      56  47  71 N9        29.76F
STORM LAKE       N/A     54  46  76 N13       29.75F
$$

ABBREVIATIONS USED IN REMARKS
   TC - TEMPERATURE IN CELSIUS
  WCI - WIND CHILL INDEX
   HX - HEAT INDEX
  VSB - VISIBILITY




USA.gov is the U.S. government's official web portal to all federal, state and local government web resources and services.